Hourly Weather Roundup
Issued by NWS Central Illinois

Home | Current Version | Previous Version | Text Only | Print | Product List | Glossary On
Versions: 1 2 3 4 5 6 7 8 9 10 11 12 13 14 15 16 17 18 19 20 21 22 23 24 25 26 27 28 29 30 31 32 33 34 35 36 37 38 39 40 41 42 43 44 45 46 47 48 49 50
000
NZUS43 KILX 011410
HWRILX

AREA WEATHER ROUNDUP
NATIONAL WEATHER SERVICE, LINCOLN IL
900 AM CDT SUN MAY 01 2016


CITY           SKY/WX    TMP DP  RH WIND       PRES   REMARKS
BLOOMINGTON    FOG       50  50 100 NE12      29.95S VSB 1/4
CHAMPAIGN      CLOUDY    55  55 100 CALM      29.93R FOG
DANVILLE       FOG       54  54 100 N7        29.91R VSB 1
DECATUR        CLOUDY    55  53  93 E3        29.94R FOG
EFFINGHAM      SUNNY     64  60  87 NW7       29.94R
FLORA          SUNNY     66  60  80 CALM      29.92R
GALESBURG      CLOUDY    48  48  99 NE10      29.95F FOG
JACKSONVILLE   FOG       52  51  96 N7        29.94R VSB 1
LACON          CLOUDY    49  47  95 NE5       29.96R FOG
LAWRENCEVILLE  SUNNY     67  60  78 CALM        N/A
LITCHFIELD     PTSUNNY   56  54  92 NE7       29.93R
$$


CITY           SKY/WX    TMP DP  RH WIND       PRES   REMARKS
LINCOLN        CLOUDY    52  52 100 N8        29.94S FOG
MACOMB         CLOUDY    48  48 100 NE9       29.98R FOG
MATTOON        FOG       55  53  93 N12       29.92R VSB 3/4
MT CARMEL AP   NOT AVBL
OLNEY-NOBLE AP SUNNY     63  59  88 CALM      29.93R
PARIS          CLOUDY    58  56  94 N7        29.94R
PEORIA         CLOUDY    50  48  93 NE8       29.95S FOG
PONTIAC        CLOUDY    51  51  99 NE12      29.97R FOG
RANTOUL        CLOUDY    55  54  99 N8        29.94R FOG
ROBINSON       SUNNY     64  58  80 CALM      29.93R
SPRINGFIELD    CLOUDY    53  52  96 NE9       29.94R FOG
TAYLORVILLE    CLOUDY    55  55 100 N7        29.94R FOG
$$

...REGIONAL REPORTS...


CITY           SKY/WX    TMP DP  RH WIND       PRES   REMARKS
CHICAGO O`HARE FOG       43  43 100 NE13      30.00R VSB 3/4
KANKAKEE       CLOUDY    49  48  96 N8        29.96R FOG
MOLINE         CLOUDY    49  45  86 NE10      29.97S FOG
MOUNT STERLING CLOUDY    49  49  97 NE8       29.94R FOG
MOUNT VERNON   SUNNY     66  57  72 SW3       29.92R
PITTSFIELD     CLOUDY    52  52 100 N6        29.96R FOG
QUINCY         CLOUDY    51  49  92 NE8       29.94R FOG
ROCKFORD       CLOUDY    46  43  89 E9        30.04R
$$


CITY           SKY/WX    TMP DP  RH WIND       PRES   REMARKS
BURLINGTON     CLOUDY    48  48 100 NE7       29.96R FOG
CEDAR RAPIDS   CLOUDY    45  44  97 NE17      29.98R
DES MOINES     CLOUDY    46  43  89 E8        30.00R
KIRKSVILLE     CLOUDY    50  47  89 NE7       29.96R FOG
OTTUMWA        CLOUDY    46  45  96 NE10      29.98R FOG
ST LOUIS       CLOUDY    62  58  86 N7        29.91R
$$


CITY           SKY/WX    TMP DP  RH WIND       PRES   REMARKS
TERRE HAUTE    SUNNY     66  55  67 VRB5      29.92R
EVANSVILLE     SUNNY     67  56  67 VRB5      29.92R
INDIANAPOLIS   PTSUNNY   67  57  70 NW5       29.91R
LAFAYETTE      CLOUDY    54  54 100 CALM      29.93R FOG
MADISON        CLOUDY    46  40  79 NE12      30.05R
MILWAUKEE      CLOUDY    42  40  92 N15G28    30.04R WCI  34
$$





USA.gov is the U.S. government's official web portal to all federal, state and local government web resources and services.